Airfield :
LOGIN :

Register | Disclaimer

   EN    FR    IT 

 










Legend :    VFR   Marginal VFR   IFR   Intensive IFR   Very Intensive IFR
Visi :
Ceiling :
>= 8 km
>= 3000ft
5 to 8 km
1000 to 3000 ft
1500m to 5 km
500 to 1000 ft
800 to 1500m
200 to 500 ft
< 800m
< 200 ft
Symbols :   Thunderstorms  Fog  Heavy snow  Heavy precipitations  Wind > 20 kt
SIGMETs :     Misc.  Thunderstorms  Icing  Turbulence  Mountain Waves  Volcanic Ashes







- Airport Elevation : 359 ft
- IATA code : BVA
- Download approach charts


LFOB - Beauvais

CURRENT METAR :
  • 210700Z AUTO VRB02KT 5000 BR NSC M06/M07 Q1023 NOSIG

EXPIRED METARs :
  • 210630Z AUTO 34005KT 6000 NSC M06/M07 Q1023 NOSIG
  • 210600Z AUTO VRB02KT 6000 NSC M05/M06 Q1022 NOSIG
  • 210530Z AUTO 31003KT 6000 NSC M04/M05 Q1022 NOSIG
  • 210500Z AUTO 36005KT 340V110 6000 NSC M05/M06 Q1022 NOSIG
  • 210430Z AUTO 34005KT 330V080 6000 NSC M05/M06 Q1022
  • 210400Z AUTO 33003KT 6000 NSC M04/M05 Q1022

TAF TAF LFOB
Valid from the 21 at 06:00 until the 22 at 06:00 UTC


210500Z 2106/2206 36005KT 8000 NSC
BECMG 2200/2202 19010KT
BECMG 2204/2206 OVC008
ATIS : +33 3 44 11 49 28
No reported NOTAMs for that airfield.



MET'MAP, your aeronautical weather chart ! - Copyright ORBIFLY December 2007 - Disclaimer

ORBIFLY MET'MAP TEAM :

Programming & Development : Alexandra Zaïnal
Concept & Development : Baudouin d'Aumeries
Co-Development & Prog : Marc-Olivier Méhu
Technical & hardware support : Manuel Goepfert

Contact : metmap@orbifly.com




SOURCES & CREDITS :

   NOAA